Regional Weather Roundup
Issued by NWS Midland/Odessa, TX

Skip options and go directly to product.
Home | Oldest Version | Previous Version | Current Version | All | Text Only | Save Text | Print | Product List | Glossary On

Skip product version selection by date and time.   
666
ASUS44 KMAF 291401
RWRMAF
MIDLAND AREA WEATHER ROUNDUP
NATIONAL WEATHER SERVICE MIDLAND TX
900 AM CDT FRI JUL 29 2016

...IN SOUTHWEST TEXAS AND SOUTHEAST NEW MEXICO...

CITY           SKY/WX    TMP DP  RH WIND       PRES   REMARKS
ALPINE         MOSUNNY   72  59  64 CALM      30.21R
ANDREWS        FAIR      74  66  75 SE3       30.12R
ARTESIA        SUNNY     75  64  69 S9        30.10R
BIG SPRING     SUNNY     75  69  80 SE9       30.13R
CARLSBAD       SUNNY     76  63  64 SE8       30.07R
DRYDEN           N/A     74  70  87 NE6       30.05R
FORT STOCKTON  SUNNY     73  66  78 SE15      30.08R
GUAD PASS      SUNNY     77  53  43 NE6       30.22R
HOBBS          SUNNY     73  63  68 SE5       30.14R
MARFA          SUNNY     71  59  65 CALM      30.19R
MIDLAND AIRPK  SUNNY     76  67  73 SE9       30.11R
MIDLAND INTL   SUNNY     75  68  78 SE12      30.10R
ODESSA         SUNNY     75  66  73 SE10      30.11R
PECOS          SUNNY     76  64  66 E7        30.05R
PRESIDIO       FAIR      80  62  53 NE5       30.04R
SEMINOLE       SUNNY     73  63  69 CALM      30.13R
SNYDER           N/A     74  68  80 S6        30.11R
WINK           SUNNY     76  66  71 SE12      30.06R
$$
...OTHER STATIONS IN TEXAS...

CITY           SKY/WX    TMP DP  RH WIND       PRES   REMARKS
ABILENE        MOSUNNY   80  67  64 SW12      30.09R
AMARILLO       CLOUDY    70  61  73 E13       30.11F
AUSTIN         CLOUDY    79  76  90 S10       30.03R
BROWNSVILLE    SUNNY     86  76  71 SE9       29.99R
CORPUS CHRISTI MOSUNNY   85  79  82 S14       30.00R
DALLAS FTW     PTSUNNY   82  71  69 S9        30.02R
DEL RIO        CLOUDY    76  70  82 E9        30.00R
EL PASO        MOSUNNY   80  57  45 CALM      30.09R
HOUSTON INT    PTSUNNY   84  77  79 SW5       30.03R
LUBBOCK        MOSUNNY   79  63  57 N6        30.14R
SAN ANGELO     SUNNY     78  68  71 S8        30.08R
SAN ANTONIO    PTSUNNY   80  73  79 S12       30.04R
WACO           CLOUDY    79  72  79 S8        30.04R
WICHITA FALLS  NOT AVBL
$$
...OTHER LOCATIONS IN NEW MEXICO...

CITY           SKY/WX    TMP DP  RH WIND       PRES   REMARKS
ALAMAGORDO     SUNNY     77  54  44 NE3       30.13S
ALBUQUERQUE    MOSUNNY   76  51  41 SE3       30.19S
CANNON AFB     CLOUDY    73  61  64 E6        30.18R
CLOVIS         SUNNY     73  57  56 CALM      30.17S
HOLLOMAN AFB   SUNNY     77  55  46 N3        30.11R
ROSWELL        SUNNY     75  61  61 S8        30.10R
RUIDOSO          N/A     66  50  55 NW5       30.34R
SANTA FE       NOT AVBL
TRUTH OR CONSE SUNNY     75  55  49 SW3       30.15S
TUCUMCARI      CLOUDY    80  60  50 SW9       30.13F
$$

USA.gov is the U.S. government's official web portal to all federal, state and local government web resources and services.